This demonstration page uses our WeatherBlox Daily Observations layout. Learn more.

Left ArrowRight Arrow

34.16533, -84.80231

Hourly Observations for August 13, 2018

Temp ( °F °C ) Dew Point ( °F °C ) Humidity (%) Winds ( mph kmh ) Pressure ( in mb ) Visibility ( mi km ) Precip ( " mm )
12:53 am 00:53 Clear 70 21.1 70 21.1 100 100 Calm 30.03 1017 7 11 0.00 0.00
1:53 am 01:53 Clear with Mist and Fog 69 20.6 69 20.6 100 100 Calm 30.02 1017 5 8 0.00 0.00
2:53 am 02:53 Clear with Mist and Fog 68 20 68 20 100 100 Calm 30.02 1017 4 6 0.00 0.00
3:53 am 03:53 Clear with Mist and Fog 68 20 68 20 100 100 Calm 30.02 1017 5 8 0.00 0.00
4:53 am 04:53 Clear with Mist and Fog 69 20.6 69 20.6 100 100 Calm 30.01 1016 5 8 0.00 0.00
5:53 am 05:53 Clear with Mist and Fog 69 20.6 69 20.6 100 100 Calm 30.02 1017 5 8 0.00 0.00
6:53 am 06:53 Clear with Mist and Fog 67 19.4 67 19.4 100 100 Calm 30.03 1017 5 8 0.00 0.00
7:26 am 07:26 Partly Cloudy with Mist and Fog 67 19.4 67 19.4 100 100 Calm 30.03 1017 3 5 0.00 0.00
7:53 am 07:53 Partly Cloudy with Mist and Fog 68 20 68 20 100 100 Calm 30.04 1017 4 6 0.00 0.00
8:08 am 08:08 Mostly Cloudy with Mist and Fog 68 20 68 20 100 100 Calm 30.06 1018 3 4 0.00 0.00
8:13 am 08:13 Mostly Cloudy with Mist and Fog 68 20 68 20 100 100 Calm 30.06 1018 2 3 0.00 0.00
8:21 am 08:21 Mostly Cloudy with Mist and Fog 69 20.6 69 20.6 100 100 Calm 30.06 1018 3 5 0.00 0.00
8:28 am 08:28 Partly Cloudy with Mist and Fog 69 20.6 69 20.6 100 100 Calm 30.06 1018 4 6 0.00 0.00
8:53 am 08:53 Sunny with Mist and Fog 71 21.7 71 21.7 100 100 Calm 30.05 1018 6 10 0.00 0.00
9:13 am 09:13 Partly Cloudy with Mist and Fog 72 22.2 71 21.7 97 97 Calm 30.06 1018 6 10 0.00 0.00
9:53 am 09:53 Mostly Sunny 75 23.9 71 21.7 88 88 VRB 3 6 30.05 1018 7 11 0.00 0.00
10:53 am 10:53 Sunny 78 25.6 71 21.7 79 79 N 3 6 30.06 1018 8 13 0.00 0.00
11:53 am 11:53 Mostly Sunny 81 27.2 72 22.2 74 74 VRB 3 6 30.06 1018 9 14 0.00 0.00
12:53 pm 12:53 Partly Cloudy 83 28.3 70 21.1 65 65 VRB 3 6 30.04 1017 10 16 0.00 0.00
1:53 pm 13:53 Sunny 86 30 66 18.9 51 51 N 6 9 30.03 1017 10 16 0.00 0.00
2:53 pm 14:53 Sunny 87 30.6 66 18.9 50 50 WSW 5 7 30.02 1017 10 16 0.00 0.00
3:53 pm 15:53 Sunny 88 31.1 64 17.8 45 45 VRB 3 6 30.00 1016 10 16 0.00 0.00
4:53 pm 16:53 Sunny 87 30.6 65 18.3 48 48 Calm 29.98 1015 10 16 0.00 0.00
5:53 pm 17:53 Sunny 86 30 66 18.9 51 51 VRB 5 7 29.96 1015 10 16 0.00 0.00
6:53 pm 18:53 Sunny 83 28.3 67 19.4 59 59 Calm 29.96 1015 10 16 0.00 0.00
7:53 pm 19:53 Sunny 79 26.1 69 20.6 72 72 Calm 29.97 1015 10 16 0.00 0.00
8:53 pm 20:53 Clear 71 21.7 70 21.1 96 96 Calm 29.99 1016 10 16 0.00 0.00
9:53 pm 21:53 Clear 70 21.1 69 20.6 97 97 Calm 30.01 1016 10 16 0.00 0.00
10:53 pm 22:53 Clear 69 20.6 69 20.6 100 100 Calm 30.02 1017 10 16 0.00 0.00
11:53 pm 23:53 Clear 67 19.4 67 19.4 100 100 Calm 30.02 1017 8 13 0.00 0.00

Powered by AerisWeather